Date,TemperatureHighF,TemperatureAvgF,TemperatureLowF,DewpointHighF,DewpointAvgF,DewpointLowF,HumidityHigh,HumidityAvg,HumidityLow,PressureMaxIn,PressureMinIn,WindSpeedMaxMPH,WindSpeedAvgMPH,GustSpeedMaxMPH,PrecipitationSumIn
2014-1-1,43,33,24,29,24,18,82,70,57,30.30,30.05,5,1,9,0.00
2014-1-2,33,21,10,27,15,2,85,78,65,30.40,29.93,9,2,14,0.00
2014-1-3,18,10,0,8,3,-6,83,71,60,30.59,30.25,8,1,11,0.01
2014-1-4,40,29,15,24,16,8,72,59,44,30.25,30.03,9,2,14,0.14
2014-1-5,38,32,13,31,27,8,88,80,60,30.05,29.61,3,1,11,0.07
2014-1-6,12,-4,-10,7,-10,-16,79,74,68,30.49,29.96,2,1,8,0.00
2014-1-7,12,2,-10,5,-5,-16,78,75,71,30.56,30.43,4,0,6,0.00
2014-1-8,30,20,10,23,14,3,81,77,72,30.54,30.41,3,1,5,0.00
2014-1-9,33,24,13,30,19,8,88,82,75,30.56,30.30,6,1,10,0.00
2014-1-10,43,38,33,40,35,30,90,88,86,30.29,29.71,9,2,9,1.10
2014-1-11,45,39,34,42,36,30,90,88,84,29.83,29.51,1,0,3,0.38
2014-1-12,46,38,32,34,30,28,86,75,60,30.08,29.84,1,0,1,0.00
2014-1-13,50,46,39,42,36,30,81,70,59,29.85,29.66,1,0,1,0.00
2014-1-14,47,35,26,34,26,20,87,73,48,29.98,29.75,1,0,1,0.01
2014-1-15,30,25,21,20,16,12,75,68,60,30.15,29.97,1,0,1,0.00
2014-1-16,32,26,19,27,20,12,82,76,69,30.08,29.73,14,3,20,0.00
2014-1-17,30,20,13,27,13,4,86,73,57,30.11,29.76,6,2,11,0.01
2014-1-18,27,21,15,23,15,9,85,78,62,30.10,29.81,6,2,14,0.00
2014-1-19,36,28,20,25,21,15,85,74,61,30.03,29.75,17,3,18,0.03
2014-1-20,42,37,32,29,27,24,79,68,59,29.94,29.71,10,1,19,0.11
2014-1-21,34,16,5,29,7,-3,87,69,44,30.28,29.84,16,5,22,0.00
2014-1-22,19,10,0,14,3,-5,81,75,64,30.28,30.06,9,2,12,0.00
2014-1-23,11,5,-1,2,-4,-9,75,68,56,30.72,30.20,8,2,12,0.00
2014-1-24,24,10,-4,15,-1,-10,78,63,44,30.72,29.87,14,3,18,0.00
2014-1-25,36,23,9,27,13,-1,83,66,42,29.98,29.61,11,4,20,0.06
2014-1-26,43,29,9,31,16,-2,71,59,47,29.98,29.59,8,2,21,0.07
2014-1-27,32,10,0,24,-2,-11,73,58,45,30.52,29.76,10,3,18,0.00
2014-1-28,14,4,-4,-3,-8,-13,73,60,41,30.58,30.42,4,1,7,0.00
2014-1-29,27,15,4,7,1,-4,70,57,41,30.42,30.30,7,2,12,0.00
2014-1-30,35,25,12,13,6,2,64,46,32,30.29,29.91,15,4,20,0.00
2014-1-31,37,35,33,28,20,11,82,56,37,30.16,30.02,7,2,10,0.00
2014-2-1,42,38,33,39,34,28,88,84,76,30.09,29.84,8,1,10,0.54
2014-2-2,35,29,24,31,24,17,87,81,72,30.28,30.01,7,3,11,0.10
2014-2-3,29,23,17,18,15,12,78,71,56,30.42,30.24,8,3,11,0.00
2014-2-4,29,24,20,22,17,13,86,76,64,30.43,29.94,9,4,16,0.00
2014-2-5,27,25,22,23,20,17,87,82,76,30.47,29.83,8,2,16,0.00
2014-2-6,22,14,0,17,7,-6,84,74,59,30.55,30.45,4,1,10,0.00
2014-2-7,17,6,-4,2,-3,-10,80,67,49,30.58,30.45,2,0,6,0.01
2014-2-8,26,19,8,19,11,1,76,71,64,30.45,30.19,4,1,10,0.00
2014-2-9,28,23,13,21,16,6,83,72,58,30.33,30.14,4,1,10,0.00
2014-2-10,17,9,2,6,0,-7,78,68,51,30.51,30.33,5,1,7,0.00
2014-2-11,19,7,-5,5,-2,-11,78,68,53,30.60,30.47,7,2,11,0.00
2014-2-12,30,16,-1,11,4,-6,79,62,43,30.48,30.08,7,2,10,0.00
2014-2-13,41,28,10,20,13,4,79,56,31,30.07,29.68,3,1,8,0.06
2014-2-14,32,24,18,24,17,13,82,76,64,29.93,29.67,7,1,8,0.00
2014-2-15,28,20,10,19,12,4,83,72,54,30.20,29.93,4,1,8,0.04
2014-2-16,32,27,22,23,19,14,83,73,57,30.34,30.00,3,1,6,0.04
2014-2-17,35,28,20,31,22,13,87,78,69,30.34,29.77,6,1,13,0.00
2014-2-18,53,41,31,30,28,26,84,63,36,30.12,29.79,1,0,3,0.55
2014-2-19,48,43,38,34,31,29,75,64,54,30.07,29.72,2,0,6,0.02
2014-2-20,63,48,38,54,41,30,87,77,70,30.01,29.43,1,1,1,0.42
2014-2-21,46,39,36,33,24,18,78,57,35,29.95,29.64,8,2,14,0.00
2014-2-22,59,44,35,31,27,19,75,53,21,30.07,29.91,7,2,9,0.00
2014-2-23,39,32,25,32,22,12,84,67,42,30.28,30.04,3,1,6,0.00
2014-2-24,34,27,20,16,12,7,72,56,34,30.36,30.25,1,1,1,0.00
2014-2-25,30,26,23,18,16,12,77,64,54,30.27,30.18,5,1,9,0.00
2014-2-26,25,17,8,11,2,-1,67,53,37,30.31,29.93,9,2,14,0.00
2014-2-27,24,19,12,10,1,-4,64,46,32,30.23,29.83,7,3,15,0.00
2014-2-28,38,23,10,14,6,-1,68,49,25,30.30,30.10,12,3,14,0.00
2014-3-1,52,38,27,30,22,12,75,55,42,30.24,30.10,8,2,12,0.00
2014-3-2,29,22,17,22,16,10,83,77,70,30.34,30.20,8,4,11,0.00
2014-3-3,20,15,11,10,2,-2,73,57,40,30.50,30.32,10,5,14,0.00
2014-3-4,33,20,8,17,7,-1,74,58,39,30.44,30.23,5,1,9,0.05
2014-3-5,34,26,19,19,15,11,77,63,44,30.41,30.24,10,4,17,0.01
2014-3-6,43,31,21,25,18,12,78,62,44,30.40,30.15,11,3,12,0.02
2014-3-7,59,40,24,31,27,20,84,61,31,30.14,29.96,6,1,8,0.00
2014-3-8,50,39,29,37,31,20,84,74,58,30.26,29.99,0,0,0,0.00
2014-3-9,48,34,22,29,22,17,85,64,37,30.34,30.04,6,1,8,0.00
2014-3-10,62,48,37,40,35,29,82,63,41,30.04,29.73,1,1,5,0.00
2014-3-11,72,58,44,45,41,35,85,57,27,29.75,29.55,1,0,1,0.00
2014-3-12,54,36,23,46,30,11,87,77,55,30.10,29.30,1,0,4,1.16
2014-3-13,41,29,18,21,15,10,79,57,37,30.27,30.08,5,1,11,0.00
2014-3-14,65,50,36,36,29,20,61,47,28,30.08,29.75,6,1,12,0.00
2014-3-15,59,47,37,34,28,22,81,52,25,30.13,29.93,1,1,1,0.00
2014-3-16,40,32,25,28,18,12,68,59,43,30.19,30.06,1,0,1,0.00
2014-3-17,40,30,21,26,18,11,68,61,50,30.08,29.88,1,0,1,0.00
2014-3-18,55,42,28,40,31,22,79,67,52,29.98,29.77,0,0,0,0.00
2014-3-19,54,48,38,44,39,29,76,72,61,30.07,29.73,0,0,0,0.00
2014-3-20,58,44,30,32,28,23,76,55,33,30.15,30.00,1,0,1,0.00
2014-3-21,72,54,38,32,30,26,74,45,19,30.05,29.79,0,0,1,0.00
2014-3-22,58,44,37,35,30,27,74,58,36,30.23,29.79,0,0,0,0.00
2014-3-23,42,35,28,29,18,13,70,52,31,30.39,30.23,0,0,0,0.00
2014-3-24,42,31,21,16,13,7,81,51,27,30.40,30.15,0,0,1,0.00
2014-3-25,37,30,27,26,17,9,80,58,34,30.27,30.04,0,0,0,0.00
2014-3-26,44,31,18,14,10,3,75,44,19,30.42,30.22,0,0,0,0.00
2014-3-27,56,43,34,41,26,12,78,52,39,30.23,29.73,0,0,0,0.06
2014-3-28,54,48,42,48,41,34,86,76,68,30.13,29.68,0,0,0,0.30
2014-3-29,42,39,37,36,34,31,87,81,74,30.22,30.04,0,0,0,0.44
2014-3-30,57,42,28,32,28,25,87,62,33,30.30,30.15,0,0,0,0.00
2014-3-31,69,54,39,35,31,26,72,46,21,30.17,29.90,0,0,0,0.00
2014-4-1,71,60,52,43,35,26,62,41,19,30.08,29.83,0,-10,1,0.02
2014-4-2,57,50,44,49,44,37,86,79,56,30.14,29.99,0,0,0,0.38
2014-4-3,68,58,52,61,54,48,89,85,76,30.01,29.63,0,0,0,1.60
2014-4-4,58,49,41,54,44,31,90,81,68,30.02,29.46,0,0,1,0.68
2014-4-5,53,44,37,33,29,26,74,58,38,30.23,30.03,1,0,11,0.01
2014-4-6,58,47,35,34,31,28,79,56,33,30.20,29.95,14,2,16,0.00
2014-4-7,51,48,43,47,38,32,88,72,51,29.94,29.42,9,3,17,0.69
2014-4-8,58,48,39,49,42,36,90,79,60,29.89,29.65,7,1,11,0.18
2014-4-9,65,51,36,40,35,31,89,60,30,30.08,29.89,8,1,12,0.00
2014-4-10,79,61,45,53,39,33,81,48,26,30.02,29.79,13,3,29,0.08
2014-4-11,71,60,51,53,42,25,89,57,19,30.07,29.91,4,1,10,0.12
2014-4-12,82,64,46,51,43,33,70,49,26,30.10,29.81,16,3,21,0.00
2014-4-13,79,72,65,56,53,51,67,52,40,29.84,29.63,12,4,19,0.00
2014-4-14,73,55,34,59,48,30,88,80,45,29.90,29.53,15,3,22,0.29
2014-4-15,42,35,31,31,25,17,88,69,43,30.28,29.88,9,2,12,0.12
2014-4-16,52,40,30,25,22,20,71,50,30,30.42,30.23,12,3,20,0.01
2014-4-17,70,54,40,39,30,24,61,41,19,30.31,30.24,9,2,19,0.00
2014-4-18,75,58,42,42,38,35,82,51,25,30.29,30.20,7,1,11,0.00
2014-4-19,69,58,44,44,36,33,71,48,27,30.33,30.22,10,4,16,0.00
2014-4-20,78,61,43,42,35,27,70,41,16,30.26,30.09,7,2,10,0.00
2014-4-21,78,63,48,55,46,40,80,58,30,30.08,29.85,5,1,11,0.00
2014-4-22,64,58,49,55,42,30,87,57,32,29.99,29.78,10,2,12,0.00
2014-4-23,61,50,38,33,29,26,70,46,27,30.14,29.99,9,2,11,0.00
2014-4-24,68,59,50,37,34,30,56,40,28,30.07,29.70,15,4,19,0.00
2014-4-25,70,60,54,54,45,36,89,62,31,29.89,29.58,7,1,14,0.37
2014-4-26,83,66,54,50,44,39,64,46,23,29.93,29.86,6,2,11,0.00
2014-4-27,76,63,48,46,41,37,65,46,32,30.00,29.78,14,6,23,0.00
2014-4-28,72,62,52,61,52,42,87,70,45,29.81,29.53,13,4,23,0.96
2014-4-29,77,61,53,58,50,36,89,71,24,29.75,29.51,14,3,21,0.18
2014-4-30,66,54,44,51,47,39,89,77,47,29.91,29.73,8,1,11,0.05
2014-5-1,56,50,43,42,38,37,83,67,51,29.93,29.85,10,2,22,0.00
2014-5-2,56,51,46,44,41,39,82,71,59,29.93,29.87,7,1,10,0.00
2014-5-3,71,59,48,47,38,29,77,51,21,29.92,29.79,6,1,15,0.00
2014-5-4,71,61,52,46,37,21,69,43,28,30.02,29.90,5,1,10,0.00
2014-5-5,72,59,48,46,37,23,54,44,32,30.01,29.80,10,3,15,0.00
2014-5-6,76,64,50,47,42,37,64,47,32,29.95,29.84,13,4,18,0.00
2014-5-7,87,73,60,60,52,46,70,50,31,29.90,29.83,8,2,15,0.00
2014-5-8,88,77,65,63,57,52,71,52,38,29.98,29.89,8,2,18,0.00
2014-5-9,79,71,64,64,57,52,82,61,46,29.91,29.78,7,2,16,0.04
2014-5-10,78,67,60,59,53,39,89,64,32,29.98,29.87,2,1,8,0.58
2014-5-11,84,68,57,68,60,45,88,76,51,30.08,29.91,10,1,12,0.84
2014-5-12,81,72,65,70,65,60,89,77,65,30.01,29.91,7,2,16,0.01
2014-5-13,84,71,58,69,64,55,89,79,56,30.09,29.92,6,1,16,0.35
2014-5-14,61,56,53,55,52,50,89,87,82,30.11,29.80,3,1,9,1.03
2014-5-15,54,50,46,51,46,41,90,85,71,30.07,29.78,3,1,11,0.02
2014-5-16,57,48,45,47,43,40,88,80,62,30.07,29.97,8,1,10,0.19
2014-5-17,58,49,44,43,40,35,88,71,47,30.25,30.07,3,0,6,0.00
2014-5-18,65,53,38,43,37,32,88,60,30,30.32,30.23,5,1,9,0.00
2014-5-19,72,60,45,43,40,37,83,51,29,30.29,30.05,5,2,19,0.00
2014-5-20,81,70,60,65,56,44,72,60,48,30.09,29.90,8,2,11,0.00
2014-5-21,86,71,65,71,63,58,89,75,55,29.93,29.82,9,1,13,1.82
2014-5-22,74,67,61,64,57,47,90,72,39,30.07,29.84,3,0,7,0.01
2014-5-23,74,64,53,53,49,45,87,60,37,30.16,30.06,4,0,9,0.00
2014-5-24,76,65,50,54,49,44,86,60,33,30.21,30.10,4,0,7,0.00
2014-5-25,81,69,57,56,52,46,85,59,30,30.15,30.05,5,1,11,0.00
2014-5-26,87,73,60,66,60,54,80,64,48,30.09,29.95,3,1,8,0.00
2014-5-27,86,76,67,68,64,62,85,67,51,30.00,29.88,4,1,8,0.00
2014-5-28,86,76,65,65,61,58,79,61,39,29.97,29.90,6,1,10,0.00
2014-5-29,82,73,66,67,64,60,85,74,57,30.03,29.95,8,1,10,0.00
2014-5-30,85,75,65,66,54,41,83,51,23,30.12,30.03,10,2,13,0.00
2014-5-31,86,76,62,56,50,44,75,43,23,30.17,30.05,11,3,14,0.00
2014-6-1,89,76,62,68,58,52,82,57,34,30.10,29.96,9,2,10,0.02
2014-6-2,79,73,68,68,66,64,89,79,68,30.03,29.91,12,2,16,0.33
2014-6-3,83,76,69,72,66,59,90,74,50,29.96,29.88,5,1,9,0.01
2014-6-4,77,70,64,72,64,56,90,83,76,29.91,29.68,6,1,11,1.66
2014-6-5,77,67,58,56,53,43,86,62,31,29.96,29.81,6,1,12,0.00
2014-6-6,80,73,62,54,50,45,71,46,30,29.99,29.91,4,1,10,0.00
2014-6-7,83,72,57,58,52,47,86,54,30,30.02,29.74,8,2,14,0.00
2014-6-8,75,69,63,65,59,53,88,72,47,29.97,29.64,6,1,12,0.14
2014-6-9,76,69,62,61,56,50,85,65,40,29.97,29.86,8,2,11,0.00
2014-6-10,73,69,64,66,62,58,87,79,70,29.88,29.71,9,3,16,0.21
2014-6-11,76,70,66,67,64,61,89,83,70,29.75,29.68,8,1,14,1.61
2014-6-12,79,71,64,67,64,60,87,78,63,29.85,29.74,3,0,8,0.01
2014-6-13,74,67,59,65,53,43,85,64,38,30.04,29.81,3,0,9,0.01
2014-6-14,77,66,49,49,44,40,85,49,28,30.14,30.02,8,1,11,0.00
2014-6-15,86,72,57,64,56,48,75,58,42,30.06,29.91,7,2,15,0.00
2014-6-16,85,77,70,73,68,64,89,75,61,30.11,29.98,5,1,9,0.14
2014-6-17,90,81,72,73,69,65,79,67,51,30.04,29.91,8,1,15,0.00
2014-6-18,89,79,73,73,70,65,86,73,57,30.03,29.92,7,1,12,0.03
2014-6-19,85,76,69,76,69,65,89,80,64,30.05,29.97,11,1,12,0.28
2014-6-20,84,76,71,72,69,66,89,80,67,30.02,29.88,4,1,8,0.11
2014-6-21,85,76,67,70,65,57,90,72,40,29.95,29.84,4,0,6,0.00
2014-6-22,87,79,72,70,66,64,79,66,50,29.89,29.80,3,1,9,0.00
2014-6-23,89,77,71,71,68,66,87,73,51,29.88,29.82,7,1,12,0.00
2014-6-24,83,74,71,70,68,65,90,81,63,29.89,29.82,6,1,10,0.40
2014-6-25,82,74,69,73,68,64,90,80,62,29.97,29.86,2,0,5,0.00
2014-6-26,85,75,67,69,65,61,88,71,48,30.02,29.94,6,0,8,0.00
2014-6-27,88,78,68,71,65,63,85,66,43,30.03,29.97,7,1,12,0.00
2014-6-28,85,78,72,71,68,66,83,73,57,30.08,29.99,5,1,10,0.01
2014-6-29,83,77,72,73,69,67,84,76,69,30.05,29.95,6,1,10,0.00
2014-6-30,86,76,68,75,70,64,87,80,68,29.97,29.75,6,1,16,0.34
2014-7-1,85,76,67,74,68,63,88,75,58,29.86,29.73,6,1,14,0.06
2014-7-2,81,73,66,68,64,57,87,73,55,29.98,29.81,5,1,8,0.00
2014-7-3,72,66,61,60,56,50,85,70,50,30.16,29.98,3,1,5,0.00
2014-7-4,77,66,54,54,51,46,88,61,35,30.29,30.16,3,0,11,0.00
2014-7-5,81,70,55,57,52,44,86,57,29,30.29,30.08,8,1,12,0.00
2014-7-6,85,74,65,67,62,57,86,67,54,30.09,29.87,6,1,12,0.04
2014-7-7,82,75,71,71,66,60,81,72,62,29.88,29.74,7,1,11,0.00
2014-7-8,80,74,70,69,66,62,88,76,59,29.85,29.66,5,1,12,0.49
2014-7-9,81,72,64,65,61,55,85,68,52,30.00,29.85,3,0,7,0.00
2014-7-10,79,70,60,59,56,52,87,64,43,30.14,30.00,7,0,9,0.00
2014-7-11,84,71,57,61,57,53,86,62,38,30.20,30.11,7,1,9,0.00
2014-7-12,81,74,67,71,65,60,85,74,61,30.15,29.97,5,1,9,0.02
2014-7-13,84,79,75,73,70,69,83,75,65,29.98,29.87,6,1,8,0.01
2014-7-14,87,74,67,70,67,63,88,80,55,29.88,29.77,5,0,9,0.42
2014-7-15,70,64,56,64,55,51,89,75,58,29.96,29.82,3,0,7,0.00
2014-7-16,72,63,54,57,52,50,87,71,47,30.03,29.96,4,0,4,0.00
2014-7-17,75,65,53,56,51,46,88,64,38,30.13,30.03,8,0,9,0.00
2014-7-18,78,67,54,57,53,48,86,65,38,30.17,30.08,12,2,15,0.00
2014-7-19,74,66,59,62,58,54,87,77,62,30.09,30.00,3,0,8,0.00
2014-7-20,81,70,59,65,59,56,87,71,42,30.06,29.99,3,0,8,0.00
2014-7-21,86,73,61,67,62,57,87,70,44,30.11,30.02,3,0,7,0.00
2014-7-22,89,77,65,68,65,60,87,68,45,30.08,29.97,4,1,9,0.00
2014-7-23,77,72,66,70,66,59,87,81,67,30.05,29.95,7,1,12,1.22
2014-7-24,75,68,60,58,55,50,86,66,43,30.08,30.00,8,1,11,0.00
2014-7-25,76,66,55,62,56,51,87,71,48,30.11,29.93,6,1,12,0.00
2014-7-26,83,75,67,73,67,60,87,76,67,29.98,29.77,6,1,11,0.08
2014-7-27,82,74,69,74,68,59,88,82,67,29.85,29.67,5,1,14,0.20
2014-7-28,71,66,60,60,56,47,80,71,55,30.03,29.80,2,1,5,0.00
2014-7-29,75,63,54,63,54,47,87,73,52,30.07,30.01,3,0,6,0.39
2014-7-30,77,66,58,66,60,55,87,83,65,30.05,30.01,2,0,11,0.35
2014-7-31,79,69,61,67,61,56,87,77,57,30.07,30.02,4,0,7,0.00
2014-8-1,81,70,61,65,60,56,86,74,45,30.09,30.02,4,0,7,0.00
2014-8-2,80,71,63,65,60,58,85,71,49,30.12,30.03,2,0,4,0.00
2014-8-3,84,72,61,66,58,50,85,66,33,30.14,30.05,3,0,14,0.00
2014-8-4,83,72,61,65,60,56,85,69,47,30.12,30.02,2,0,7,0.00
2014-8-5,81,71,64,66,62,59,84,73,49,30.05,29.97,2,0,6,0.00
2014-8-6,78,71,64,67,63,59,84,76,62,30.02,29.95,2,0,4,0.00
2014-8-7,70,69,68,63,63,62,81,81,80,30.03,30.02,0,0,1,0.00
2014-8-8,74,71,67,63,60,58,75,69,61,30.03,29.96,10,3,13,0.02
2014-8-9,82,75,68,66,63,56,74,66,56,30.00,29.92,11,3,16,0.00
2014-8-10,83,76,69,70,67,63,82,74,62,29.97,29.86,8,2,11,0.07
2014-8-11,79,73,70,73,68,64,84,82,79,29.90,29.77,5,0,7,0.23
2014-8-12,71,67,62,64,60,56,84,80,69,29.96,29.76,3,1,10,0.00
2014-8-13,79,67,56,61,55,50,84,68,38,30.04,29.96,3,0,7,0.00
2014-8-14,80,71,64,64,58,49,83,66,44,30.03,29.96,3,0,6,0.01
2014-8-15,77,63,49,55,48,39,83,60,26,30.09,29.98,3,0,5,0.00
2014-8-16,74,66,59,68,60,53,84,80,73,30.00,29.93,4,0,7,0.45
2014-8-17,80,73,68,68,65,62,83,77,64,29.96,29.85,11,2,12,0.06
2014-8-18,86,75,66,70,66,61,84,76,53,29.86,29.76,4,0,7,0.00
2014-8-19,86,76,68,71,67,63,84,75,55,29.82,29.73,5,1,14,0.13
2014-8-20,81,72,66,72,66,61,85,80,73,29.99,29.79,4,0,11,0.07
2014-8-21,86,77,70,75,70,65,84,79,69,30.02,29.91,6,0,9,0.65
2014-8-22,83,78,74,74,70,68,83,78,66,29.98,29.89,3,0,10,0.00
2014-8-23,90,76,70,74,69,65,84,78,58,29.97,29.88,4,1,13,1.00
2014-8-24,87,78,71,74,70,66,85,77,62,30.00,29.93,5,1,9,0.00
2014-8-25,90,79,71,75,70,66,83,74,54,30.05,29.98,4,1,12,0.01
2014-8-26,89,76,69,76,68,63,84,78,54,30.09,29.98,4,0,10,0.24
2014-8-27,86,77,71,74,69,64,84,76,61,30.08,29.99,2,0,5,0.00
2014-8-28,84,75,66,68,64,60,81,69,52,30.07,29.98,7,1,10,0.00
2014-8-29,88,77,69,72,65,61,76,68,54,30.03,29.90,6,2,11,0.00
2014-8-30,79,75,71,70,66,63,82,75,62,29.99,29.93,6,1,11,0.22